Calumet, MI

1:04 AM EST on February 25, 2017 (GMT -0500)
Houghton County Memorial

Weather History for KCMX - August, 2013

Change the Weather History Date:

Thursday, August 15, 2013

  Actual Average Record
Temperature  
Mean Temperature 62 °F -  
Max Temperature 73 °F 74 °F 88 °F (2015)
Min Temperature 51 °F 55 °F 39 °F (1971)
Degree Days  
Heating Degree Days 3    
Growing Degree Days 12 (Base 50)    
Moisture  
Dew Point 47 °F    
Average Humidity 58    
Maximum Humidity 75    
Minimum Humidity 38    
Precipitation  
Precipitation 0.00 in - - ()
Sea Level Pressure  
Sea Level Pressure 30.07 in    
Wind  
Wind Speed 10 mph (WNW)    
Max Wind Speed 16 mph    
Max Gust Speed 20 mph    
Visibility 10 miles    
Events      
Averages and records for this station are not official NWS values.
T = Trace of Precipitation, MM = Missing Value Source: NWS Daily Summary

Daily Weather History Graph

Daily Weather History Graph

Search for Another Location

Airport or City:

Trip Planner

Search our weather history database for the weather conditions in past years. The results will help you decide how hot, cold, wet, or windy it might be!

Date:

Astronomy

Aug. 15, 2013 Rise Set
Actual Time 6:51 AM EDT 9:04 PM EDT
Civil Twilight 6:17 AM EDT 9:38 PM EDT
Nautical Twilight 5:35 AM EDT 10:19 PM EDT
Astronomical Twilight 4:48 AM EDT 11:06 PM EDT
Moon 4:29 PM EDT (8/15) 12:54 AM EDT (8/15)
Length of Visible Light 15h 20m
Length of Day
14h 13m
Waxing Gibbous, 64% of the Moon is Illuminated
Aug 15
Waxing Gibbous
Aug 20
Full
Aug 28
Last Quarter
Sep 5
New
Sep 12
First Quarter

Hourly Weather History & Observations

Time (EDT) Temp. Dew Point Humidity Pressure Visibility Wind Dir Wind Speed Gust Speed Precip Events Conditions
12:53 AM 55.9 °F 42.1 °F 60% 30.08 in 10.0 mi WNW 11.5 mph - N/A   Clear
1:53 AM 53.1 °F 42.1 °F 66% 30.07 in 10.0 mi WNW 6.9 mph - N/A   Clear
2:53 AM 51.1 °F 42.1 °F 71% 30.06 in 10.0 mi WNW 8.1 mph - N/A   Clear
3:53 AM 51.1 °F 42.1 °F 71% 30.06 in 10.0 mi WNW 6.9 mph - N/A   Clear
4:53 AM 53.1 °F 44.1 °F 71% 30.05 in 10.0 mi West 6.9 mph - N/A   Clear
5:53 AM 55.0 °F 45.0 °F 69% 30.05 in 10.0 mi West 8.1 mph - N/A   Clear
6:53 AM 55.9 °F 46.0 °F 69% 30.06 in 10.0 mi West 9.2 mph - N/A   Clear
7:53 AM 57.0 °F 48.0 °F 72% 30.06 in 10.0 mi WNW 10.4 mph - N/A   Clear
8:53 AM 60.1 °F 52.0 °F 75% 30.07 in 10.0 mi WNW 13.8 mph - N/A   Clear
9:53 AM 63.0 °F 53.1 °F 70% 30.08 in 10.0 mi West 15.0 mph - N/A   Clear
10:53 AM 66.9 °F 53.1 °F 61% 30.08 in 10.0 mi West 15.0 mph - N/A   Clear
11:53 AM 69.1 °F 52.0 °F 54% 30.07 in 10.0 mi West 16.1 mph - N/A   Clear
12:53 PM 71.1 °F 52.0 °F 51% 30.07 in 10.0 mi WNW 12.7 mph - N/A   Clear
1:53 PM 72.0 °F 51.1 °F 48% 30.06 in 10.0 mi WNW 15.0 mph - N/A   Clear
2:53 PM 73.0 °F 48.9 °F 42% 30.06 in 10.0 mi WNW 16.1 mph - N/A   Clear
3:53 PM 73.9 °F 48.0 °F 40% 30.06 in 10.0 mi WNW 12.7 mph 19.6 mph N/A   Clear
4:53 PM 73.0 °F 46.0 °F 38% 30.06 in 10.0 mi West 13.8 mph - N/A   Clear
5:53 PM 72.0 °F 46.0 °F 40% 30.06 in 10.0 mi West 12.7 mph - N/A   Clear
6:53 PM 71.1 °F 46.0 °F 41% 30.06 in 10.0 mi West 9.2 mph - N/A   Clear
7:53 PM 68.0 °F 46.9 °F 47% 30.06 in 10.0 mi WSW 5.8 mph - N/A   Clear
8:53 PM 64.9 °F 48.9 °F 56% 30.07 in 10.0 mi WNW 3.5 mph - N/A   Clear
9:53 PM 60.1 °F 48.0 °F 64% 30.08 in 10.0 mi NW 9.2 mph - N/A   Clear
10:53 PM 59.0 °F 46.9 °F 64% 30.09 in 10.0 mi NW 9.2 mph - N/A   Clear
11:53 PM 60.1 °F 45.0 °F 57% 30.09 in 10.0 mi NW 9.2 mph - N/A   Clear